IN3APK-3 Weather Reports


time (UTC)temp
F
wind
direction
speed
knots
gust
knots
rain 1hr
in
rain 24hr
in
rain mn
in
humidity
%
barometer
mb
20260507203133 51 0.0 0.0 0.00 0.00 0.00 51 1009.2
20260507202040 51 0.0 0.0 0.00 0.00 0.00 51 1009.1
20260507200948 51 0.0 0.0 0.00 0.00 0.00 50 1009.0
20260507195856 51 0.0 0.0 0.00 0.00 0.00 50 1009.0
20260507194804 51 0.0 0.0 0.00 0.00 0.00 50 1008.8
20260507193711 51 0.0 0.0 0.00 0.00 0.00 50 1008.7
20260507192619 52 0.0 0.0 0.00 0.00 0.00 50 1008.5
20260507191527 52 0.0 0.0 0.00 0.00 0.00 49 1008.3
20260507190435 53 0.0 0.0 0.00 0.00 0.00 49 1008.1
20260507185343 53 0.0 0.0 0.00 0.00 0.00 48 1008.0
20260507184251 54 0.0 0.0 0.00 0.00 0.00 48 1007.8
20260507183159 55 0.0 0.0 0.00 0.00 0.00 47 1007.7
20260507182108 56 0.0 0.0 0.00 0.00 0.00 46 1007.5
20260507181016 57 0.0 0.0 0.00 0.00 0.00 45 1007.3
20260507175924 59 0.0 0.0 0.00 0.00 0.00 45 1007.1
20260507174833 61 0.0 0.0 0.00 0.00 0.00 44 1006.8
20260507171601 73 0.0 0.0 0.00 0.00 0.00 37 1006.3
20260507170510 78 0.0 0.0 0.00 0.00 0.00 35 1006.1
20260507164327 79 0.0 0.0 0.00 0.00 0.00 34 1005.9
20260507163235 80 0.0 0.0 0.00 0.00 0.00 34 1005.9
20260507162143 78 0.0 0.0 0.00 0.00 0.00 35 1005.9
20260507161051 78 0.0 0.0 0.00 0.00 0.00 34 1005.8
20260507160002 84 0.0 0.0 0.00 0.00 0.00 33 1005.8
20260507154910 85 0.0 0.0 0.00 0.00 0.00 33 1005.7
20260507153819 88 0.0 0.0 0.00 0.00 0.00 32 1005.6
20260507152726 84 0.0 0.0 0.00 0.00 0.00 34 1005.7
20260507151634 85 0.0 0.0 0.00 0.00 0.00 33 1005.6
20260507150542 85 0.0 0.0 0.00 0.00 0.00 34 1005.6
20260507145450 85 0.0 0.0 0.00 0.00 0.00 35 1005.7
20260507144358 85 0.0 0.0 0.00 0.00 0.00 35 1005.7
20260507143306 84 0.0 0.0 0.00 0.00 0.00 36 1005.8
20260507142214 83 0.0 0.0 0.00 0.00 0.00 36 1005.9
20260507141122 82 0.0 0.0 0.00 0.00 0.00 36 1005.9
20260507140029 80 0.0 0.0 0.00 0.00 0.00 39 1006.0
20260507134936 76 0.0 0.0 0.00 0.00 0.00 42 1006.0
20260507133842 72 0.0 0.0 0.00 0.00 0.00 46 1006.1
20260507132747 66 0.0 0.0 0.00 0.00 0.00 52 1006.2
20260507131655 65 0.0 0.0 0.00 0.00 0.00 52 1006.4
20260507125507 59 0.0 0.0 0.00 0.00 0.00 58 1006.5
20260507124414 58 0.0 0.0 0.00 0.00 0.00 57 1006.5
20260507123323 60 0.0 0.0 0.00 0.00 0.00 56 1006.7
20260507122232 63 0.0 0.0 0.00 0.00 0.00 55 1006.6
20260507121141 66 0.0 0.0 0.00 0.00 0.00 53 1006.4
20260507120050 67 0.0 0.0 0.00 0.00 0.00 53 1006.3
20260507114957 63 0.0 0.0 0.00 0.00 0.00 58 1006.5
20260507112812 61 0.0 0.0 0.00 0.00 0.00 58 1006.3
20260507111721 64 0.0 0.0 0.00 0.00 0.00 57 1006.3
20260507110630 66 0.0 0.0 0.00 0.00 0.00 57 1006.4
20260507105538 67 0.0 0.0 0.00 0.00 0.00 57 1006.5
20260507104446 69 0.0 0.0 0.00 0.00 0.00 57 1006.4
20260507102306 69 0.0 0.0 0.00 0.00 0.00 58 1006.5
20260507101209 66 0.0 0.0 0.00 0.00 0.00 60 1006.7
20260507100116 63 0.0 0.0 0.00 0.00 0.00 61 1006.8
20260507095023 61 0.0 0.0 0.00 0.00 0.00 63 1006.9
20260507093930 59 0.0 0.0 0.00 0.00 0.00 65 1006.9
20260507092837 59 0.0 0.0 0.00 0.00 0.00 65 1007.0
20260507091745 59 0.0 0.0 0.00 0.00 0.00 65 1006.9
20260507090653 59 0.0 0.0 0.00 0.00 0.00 65 1007.0
20260507085601 59 0.0 0.0 0.00 0.00 0.00 65 1007.0
20260507084509 59 0.0 0.0 0.00 0.00 0.00 65 1007.1
20260507083416 57 0.0 0.0 0.00 0.00 0.00 67 1007.0
20260507082324 57 0.0 0.0 0.00 0.00 0.00 67 1007.0
20260507081232 56 0.0 0.0 0.00 0.00 0.00 67 1007.0
20260507080139 55 0.0 0.0 0.00 0.00 0.00 68 1007.1
20260507075047 54 0.0 0.0 0.00 0.00 0.00 69 1007.1
20260507073954 53 0.0 0.0 0.00 0.00 0.00 69 1007.0
20260507072902 53 0.0 0.0 0.00 0.00 0.00 70 1006.9
20260507071810 53 0.0 0.0 0.00 0.00 0.00 70 1007.0
20260507070717 52 0.0 0.0 0.00 0.00 0.00 71 1006.9
20260507065625 51 0.0 0.0 0.00 0.00 0.00 71 1006.8
20260507064533 51 0.0 0.0 0.00 0.00 0.00 71 1006.8
20260507063440 50 0.0 0.0 0.00 0.00 0.00 71 1006.7
20260507062348 50 0.0 0.0 0.00 0.00 0.00 72 1006.7
20260507061256 49 0.0 0.0 0.00 0.00 0.00 72 1006.6
20260507060203 48 0.0 0.0 0.00 0.00 0.00 72 1006.7
20260507055110 47 0.0 0.0 0.00 0.00 0.00 73 1006.8
20260507054018 47 0.0 0.0 0.00 0.00 0.00 73 1006.7
20260507052925 47 0.0 0.0 0.00 0.00 0.00 73 1006.7
20260507051833 47 0.0 0.0 0.00 0.00 0.00 73 1006.7
20260507050741 46 0.0 0.0 0.00 0.00 0.00 73 1006.5
20260507045649 46 0.0 0.0 0.00 0.00 0.00 73 1006.4
20260507044557 46 0.0 0.0 0.00 0.00 0.00 73 1006.2
20260507043504 46 0.0 0.0 0.00 0.00 0.00 73 1006.1
20260507042412 46 0.0 0.0 0.00 0.00 0.00 73 1006.0
20260507041320 46 0.0 0.0 0.00 0.00 0.00 73 1005.9
20260507040228 46 0.0 0.0 0.00 0.00 0.00 73 1005.8
20260507035136 46 0.0 0.0 0.00 0.00 0.00 73 1005.7
20260507034044 46 0.0 0.0 0.00 0.00 0.00 73 1005.6
20260507031859 46 0.0 0.0 0.00 0.00 0.00 73 1005.6
20260507030807 46 0.0 0.0 0.00 0.00 0.00 73 1005.7
20260507025715 46 0.0 0.0 0.00 0.00 0.00 74 1005.8
20260507024623 45 0.0 0.0 0.00 0.00 0.00 73 1005.7
20260507023531 46 0.0 0.0 0.00 0.00 0.00 73 1005.7
20260507022439 46 0.0 0.0 0.00 0.00 0.00 73 1005.7
20260507021347 46 0.0 0.0 0.00 0.00 0.00 73 1005.8
20260507020254 46 0.0 0.0 0.00 0.00 0.00 73 1005.8
20260507015202 46 0.0 0.0 0.00 0.00 0.00 73 1005.6
20260507014110 46 0.0 0.0 0.00 0.00 0.00 73 1005.6
20260507013018 46 0.0 0.0 0.00 0.00 0.00 73 1005.6
20260507011926 46 0.0 0.0 0.00 0.00 0.00 73 1005.7
20260507010834 46 0.0 0.0 0.00 0.00 0.00 73 1005.7
20260507005741 46 0.0 0.0 0.00 0.00 0.00 73 1005.8
20260507004649 46 0.0 0.0 0.00 0.00 0.00 73 1005.7
20260507003557 46 0.0 0.0 0.00 0.00 0.00 73 1005.8
20260507001412 46 0.0 0.0 0.00 0.00 0.00 73 1005.7
20260507000321 46 0.0 0.0 0.00 0.00 0.00 73 1005.6
20260506235228 46 0.0 0.0 0.00 0.00 0.00 73 1005.6
20260506234135 46 0.0 0.0 0.00 0.00 0.00 73 1005.6
20260506233043 45 0.0 0.0 0.00 0.00 0.00 74 1005.6
20260506231951 45 0.0 0.0 0.00 0.00 0.00 74 1005.7
20260506230859 45 0.0 0.0 0.00 0.00 0.00 74 1005.7
20260506225807 45 0.0 0.0 0.00 0.00 0.00 74 1005.6
20260506224714 44 0.0 0.0 0.00 0.00 0.00 74 1005.7
20260506223622 44 0.0 0.0 0.00 0.00 0.00 74 1005.7
20260506222530 45 0.0 0.0 0.00 0.00 0.00 74 1005.9
20260506221438 45 0.0 0.0 0.00 0.00 0.00 74 1005.7
20260506215254 47 0.0 0.0 0.00 0.00 0.00 73 1005.6
20260506214203 48 0.0 0.0 0.00 0.00 0.00 72 1005.5
20260506213110 48 0.0 0.0 0.00 0.00 0.00 72 1005.7
20260506212019 48 0.0 0.0 0.00 0.00 0.00 72 1005.6
20260506205834 48 0.0 0.0 0.00 0.00 0.00 72 1005.6
20260506204742 48 0.0 0.0 0.00 0.00 0.00 72 1005.5